Total_Precipitation_Accumulation
0.00 0.03 0.04 0.06 0.08 0.31 0.56 0.68 0.99 1.20 0.72 0.24 0.10 0.13 0.08 0.13 0.11 0.11 0.10 0.06 0.08 0.02 0.01 0.01 0.00 0.00 0.00 0.00 0.00 0.00 0.00 0.00
0.02 0.05 0.06 0.08 0.18 0.41 0.63 0.99 0.92 0.32 0.11 0.08 0.06 0.07 0.13 0.21 0.17 0.15 0.15 0.08 0.13 0.11 0.07 0.10 0.01 0.01 0.00 0.00 0.00 0.00 0.00 0.00
0.01 0.04 0.10 0.28 0.44 0.44 0.31 0.14 0.12 0.02 0.02 0.05 0.05 0.06 0.11 0.18 0.14 0.12 0.22 0.15 0.11 0.07 0.13 0.26 0.12 0.09 0.02 0.02 0.00 0.00 0.00 0.00
0.04 0.08 0.13 0.10 0.05 0.02 0.06 0.08 0.13 0.04 0.02 0.01 0.01 0.06 0.12 0.10 0.17 0.17 0.16 0.15 0.20 0.13 0.16 0.20 0.15 0.08 0.03 0.01 0.01 0.00 0.00 0.00
0.03 0.00 0.00 0.01 0.02 0.03 0.06 0.11 0.14 0.04 0.01 0.00 0.01 0.06 0.08 0.16 0.17 0.13 0.10 0.09 0.11 0.12 0.15 0.16 0.18 0.13 0.12 0.07 0.02 0.02 0.05 0.08
0.00 0.01 0.00 0.00 0.04 0.07 0.08 0.11 0.15 0.08 0.01 0.06 0.12 0.14 0.15 0.16 0.13 0.10 0.08 0.08 0.07 0.05 0.04 0.03 0.03 0.04 0.06 0.07 0.07 0.14 0.22 0.26
0.02 0.02 0.01 0.01 0.05 0.08 0.10 0.12 0.19 0.09 0.06 0.07 0.13 0.17 0.14 0.10 0.08 0.09 0.06 0.07 0.08 0.07 0.05 0.04 0.04 0.07 0.07 0.14 0.29 0.33 0.30 0.28
0.03 0.02 0.01 0.02 0.04 0.08 0.08 0.07 0.09 0.09 0.12 0.07 0.05 0.12 0.16 0.16 0.12 0.17 0.12 0.07 0.06 0.15 0.22 0.19 0.13 0.16 0.28 0.26 0.20 0.21 0.22 0.24
0.01 0.01 0.02 0.03 0.07 0.18 0.12 0.11 0.11 0.07 0.11 0.16 0.20 0.25 0.31 0.37 0.36 0.31 0.19 0.21 0.24 0.39 0.52 0.55 0.47 0.35 0.33 0.35 0.37 0.38 0.32 0.28
0.00 0.01 0.02 0.03 0.03 0.16 0.20 0.13 0.12 0.08 0.10 0.16 0.24 0.37 0.40 0.30 0.35 0.57 0.42 0.37 0.28 0.39 0.49 0.40 0.40 0.36 0.39 0.35 0.25 0.21 0.23 0.29
0.00 0.00 0.00 0.01 0.02 0.11 0.15 0.09 0.11 0.10 0.08 0.10 0.15 0.27 0.41 0.48 0.80 1.09 1.22 0.99 0.76 0.49 0.51 0.47 0.34 0.24 0.23 0.20 0.19 0.19 0.19 0.18
0.00 0.00 0.01 0.00 0.01 0.05 0.13 0.18 0.15 0.06 0.10 0.20 0.33 0.39 0.58 0.91 0.87 1.17 0.94 0.89 0.95 0.79 0.50 0.42 0.23 0.27 0.30 0.26 0.21 0.16 0.13 0.10
0.00 0.00 0.01 0.00 0.00 0.01 0.06 0.26 0.48 0.63 0.59 1.00 0.92 1.05 1.21 1.11 1.37 1.94 1.33 0.97 0.70 0.48 0.31 0.19 0.18 0.19 0.18 0.15 0.12 0.10 0.07 0.05
0.00 0.00 0.00 0.00 0.01 0.04 0.21 0.71 1.11 0.90 0.95 0.97 1.08 1.49 0.97 0.59 0.44 0.36 0.31 0.23 0.15 0.10 0.09 0.12 0.14 0.13 0.16 0.17 0.14 0.09 0.06 0.04
0.00 0.00 0.00 0.00 0.04 0.14 0.21 0.45 0.69 0.70 0.68 0.68 0.64 0.61 0.60 0.38 0.30 0.22 0.14 0.13 0.13 0.07 0.08 0.09 0.10 0.12 0.13 0.11 0.07 0.03 0.01 0.01
0.01 0.01 0.03 0.04 0.07 0.10 0.11 0.21 0.24 0.27 0.31 0.28 0.24 0.19 0.18 0.16 0.15 0.10 0.11 0.05 0.05 0.05 0.07 0.12 0.09 0.07 0.07 0.05 0.02 0.01 0.01 0.01
0.00 0.01 0.03 0.04 0.06 0.09 0.10 0.11 0.15 0.15 0.22 0.18 0.13 0.08 0.10 0.11 0.10 0.12 0.05 0.04 0.07 0.11 0.14 0.12 0.08 0.05 0.08 0.04 0.01 0.00 0.00 0.00
0.00 0.00 0.02 0.12 0.05 0.06 0.06 0.08 0.09 0.11 0.10 0.09 0.08 0.10 0.07 0.06 0.06 0.07 0.08 0.16 0.19 0.18 0.17 0.12 0.05 0.02 0.03 0.01 0.00 0.00 0.00 0.00
0.00 0.00 0.08 0.06 0.01 0.02 0.03 0.03 0.03 0.03 0.03 0.04 0.06 0.08 0.06 0.06 0.11 0.17 0.23 0.22 0.20 0.13 0.05 0.02 0.01 0.01 0.01 0.00 0.00 0.00 0.00 0.00